Wind_Speed
10 8 6 4 5 4 5 2 1 2 2 3 5 4 7 9 10 10 14 14 5 4 3 7 9 11 11 11 12 13 10 6 3 3 3 6 18 28 31 33 35 33 31 26 25 24 23 22 20 21 20 21 21 21 22 22 22 21 21 21 22 21 20 19 19 19 19 19 19 20 20 19 18 17 16 16 16 17 16 16 16 15 14 14 13 13 13 12 13 13 12 13 13 13 11 12 14
9 7 6 4 5 2 2 2 1 2 2 4 6 6 8 5 7 12 13 10 2 2 3 9 11 17 19 14 13 16 13 11 10 8 8 19 24 24 30 34 34 34 31 27 25 24 23 22 21 21 20 21 21 21 22 23 22 21 21 21 22 21 20 19 19 18 18 18 18 18 18 18 17 16 15 15 16 16 16 14 14 14 13 13 13 13 12 12 12 12 11 11 11 12 11 13 17
10 7 6 6 5 3 2 1 2 2 3 5 7 6 7 6 10 12 5 2 2 2 6 11 12 12 17 17 15 13 9 9 14 11 9 19 19 18 28 31 33 33 30 27 24 24 23 22 21 21 21 22 21 21 22 23 22 21 21 22 22 21 20 19 18 18 17 17 17 17 17 16 16 15 15 15 16 16 14 14 14 14 13 13 13 12 12 12 11 11 10 10 10 10 11 15 18
10 8 8 6 2 2 1 1 3 2 3 5 6 5 7 9 9 5 1 1 2 5 6 9 9 8 16 17 11 10 7 7 12 11 6 14 20 23 28 29 32 30 28 27 24 24 23 22 22 21 21 22 21 22 23 23 22 21 21 22 23 21 19 19 18 17 17 17 17 17 17 16 15 15 14 15 15 14 14 14 14 13 13 13 13 12 12 11 11 10 8 9 9 8 12 16 17
10 9 10 6 2 1 1 2 3 4 6 5 4 6 6 6 2 4 1 3 5 5 6 7 5 6 13 11 5 4 3 7 12 14 12 19 28 28 28 29 30 27 26 25 24 24 22 22 22 22 22 22 22 22 23 23 21 21 22 23 23 20 19 18 18 16 16 17 17 17 16 16 15 14 14 15 15 14 13 13 13 12 12 13 13 13 12 11 10 9 8 9 8 8 13 16 17
9 8 9 7 3 2 1 3 3 5 8 6 6 9 7 6 1 7 1 3 5 4 8 9 7 8 9 7 7 4 3 8 11 15 18 23 27 26 28 30 28 26 25 24 24 24 23 22 22 22 22 22 22 23 23 22 22 22 23 24 22 19 18 18 17 16 16 16 16 16 15 14 14 14 14 14 14 13 12 11 12 12 13 13 13 13 11 10 9 9 9 8 7 11 15 16 17
6 3 4 3 3 2 2 4 5 6 8 8 9 12 10 7 4 4 2 2 5 4 8 9 12 12 7 4 6 8 10 15 12 17 24 26 26 25 29 28 27 26 23 23 23 23 23 22 23 23 22 22 22 23 23 22 23 24 24 24 21 18 17 17 16 15 15 15 15 15 14 14 14 14 14 13 12 11 10 11 11 11 12 12 12 12 10 9 9 9 8 6 8 13 16 16 16
7 2 1 2 1 2 2 4 6 7 8 10 12 12 10 7 5 3 3 3 1 0 5 10 15 12 6 7 6 8 16 25 24 26 29 28 27 26 28 27 26 25 23 23 23 23 23 23 23 22 22 21 22 22 22 23 24 25 25 24 21 18 17 17 15 15 15 15 15 15 15 14 14 13 13 12 11 11 10 10 11 10 11 10 10 10 9 8 8 9 7 5 8 13 15 14 14
8 3 2 1 2 3 3 5 6 9 11 12 14 12 7 4 2 4 3 4 2 0 3 7 12 10 7 12 9 6 15 29 31 29 28 27 27 27 26 26 26 25 23 23 24 24 23 23 23 22 21 21 22 22 22 23 25 25 25 23 20 18 18 17 16 15 15 16 16 15 14 13 13 12 12 11 11 11 10 10 10 11 10 10 9 9 8 8 7 7 5 5 7 10 11 11 12
5 4 1 1 2 4 5 5 7 9 12 13 15 11 5 3 3 4 4 3 1 2 9 13 13 13 11 11 8 4 14 27 30 25 24 25 24 24 26 26 25 25 24 24 25 25 23 22 22 22 22 22 22 22 23 24 25 26 25 22 20 19 18 17 16 16 17 17 16 15 13 13 12 12 11 10 9 10 10 10 10 10 10 10 9 8 8 7 6 6 4 4 7 9 7 9 10
2 3 2 2 3 4 5 6 8 9 11 12 13 9 6 5 4 4 3 2 3 2 9 15 12 13 12 8 4 6 17 25 27 23 22 23 22 23 27 27 24 23 24 26 26 25 24 22 22 23 22 22 22 22 24 25 26 26 24 22 20 19 18 17 17 17 16 15 14 12 12 13 13 11 10 9 9 9 9 9 9 8 8 9 7 7 7 7 6 5 4 4 6 8 5 5 7
2 3 2 2 3 4 6 6 8 10 10 11 10 4 5 6 6 4 2 2 1 3 3 10 11 11 11 6 3 8 16 20 24 23 21 23 22 26 29 27 24 22 23 26 27 25 24 23 22 22 23 22 23 24 25 26 25 24 23 20 19 18 18 17 17 16 15 13 11 11 12 13 13 11 9 9 10 9 9 9 8 7 7 7 6 7 7 7 6 5 5 4 5 7 4 3 4
3 4 2 4 4 5 7 7 8 9 7 8 6 3 6 6 6 4 4 3 1 2 0 10 12 9 9 6 5 7 11 17 24 23 21 23 23 27 28 25 23 22 24 26 27 26 25 24 23 23 23 23 24 25 25 25 24 23 21 18 17 17 17 17 16 15 13 11 10 11 12 13 13 11 9 9 10 10 10 9 8 7 6 6 5 6 7 6 5 4 4 4 5 4 3 2 2
4 4 3 4 4 5 6 7 8 7 5 5 3 1 2 4 4 4 4 3 5 4 7 13 10 11 9 6 5 5 8 19 24 22 22 23 24 26 26 24 23 23 25 26 27 27 25 24 23 23 24 24 24 24 24 24 22 21 19 17 17 17 17 16 15 13 12 11 11 12 13 13 12 11 9 9 9 9 8 8 7 6 5 5 5 5 5 5 4 3 2 3 4 3 2 1 1
6 3 3 4 4 5 5 7 8 6 6 5 4 0 4 2 2 7 6 6 10 7 8 10 6 9 8 7 6 6 12 23 23 23 23 24 25 26 25 24 22 23 25 26 26 26 25 24 22 22 24 24 24 23 22 21 20 19 17 16 17 17 17 15 13 12 13 12 13 13 13 12 12 11 10 8 8 7 6 6 5 4 4 4 4 4 4 3 3 3 2 2 2 2 0 1 1
5 3 3 4 5 5 5 7 7 6 6 5 4 1 5 1 2 7 3 5 9 8 10 4 1 7 11 8 10 13 20 26 24 25 25 25 26 25 25 24 23 23 25 26 26 25 25 24 23 22 23 24 24 23 22 20 19 18 17 17 18 17 16 15 14 14 14 14 14 13 12 11 11 10 9 7 7 5 5 5 4 3 3 4 4 4 3 2 1 1 2 2 1 0 0 0 2
4 4 4 4 5 6 7 7 6 4 3 3 5 5 4 2 3 2 4 12 12 11 13 8 6 6 10 12 20 24 26 27 27 27 25 24 23 22 22 22 23 23 25 25 24 24 24 24 23 22 23 23 23 22 22 21 18 18 18 20 19 18 16 15 15 15 15 15 14 13 12 11 10 10 8 7 6 5 4 3 3 2 4 5 6 6 6 5 4 2 1 1 2 1 2 3 3
4 4 5 5 6 7 9 9 7 3 2 3 5 6 6 4 4 2 5 15 14 12 12 12 13 11 13 21 27 28 29 28 28 26 21 20 19 18 18 19 22 23 25 25 23 24 24 25 24 23 24 23 23 22 22 21 19 19 20 21 19 18 17 15 15 15 14 13 14 13 13 12 12 10 8 7 6 5 4 3 2 2 4 6 7 8 8 7 6 5 3 2 2 3 4 4 4
4 3 5 5 6 9 11 11 11 7 4 4 5 5 5 3 3 1 2 11 14 11 9 13 16 13 15 20 24 27 28 26 25 24 19 17 17 17 16 18 21 22 24 25 24 25 24 26 26 25 25 24 23 22 22 21 21 21 21 20 19 19 17 15 15 14 13 13 13 13 13 13 12 10 8 7 5 5 5 4 3 2 4 6 7 8 8 8 7 6 5 3 4 4 5 4 3
5 5 4 5 7 11 13 12 14 12 5 3 3 1 1 2 1 1 4 11 13 10 8 11 14 14 14 14 18 23 23 21 22 21 17 16 18 18 17 19 21 21 25 24 25 26 26 27 27 26 26 26 23 23 23 22 22 21 21 20 19 19 16 14 14 13 13 13 13 12 12 12 12 11 9 7 7 6 5 5 4 4 4 5 6 7 7 7 7 6 6 5 6 6 5 4 2
4 5 6 7 8 11 14 13 14 12 5 2 2 1 1 4 3 1 5 10 8 7 9 12 14 15 15 13 14 17 17 17 18 18 17 16 17 18 19 20 21 23 24 23 26 28 27 28 28 27 27 27 24 24 24 23 22 21 21 20 18 18 16 14 13 12 12 13 13 12 11 11 11 11 10 9 7 5 4 4 3 4 5 5 5 5 6 6 6 6 5 4 4 4 5 4 3
4 6 9 11 10 12 15 12 11 9 4 5 5 4 4 6 4 3 2 5 4 5 11 15 17 15 15 14 12 12 13 13 13 15 15 15 17 17 18 20 23 24 22 23 29 30 28 28 28 27 28 27 26 26 25 23 22 20 20 21 19 18 16 14 13 13 12 12 13 12 11 11 11 10 9 8 7 5 4 4 3 3 4 5 4 4 5 4 3 3 2 2 1 1 1 2 1
6 7 8 12 12 13 14 12 10 6 4 5 6 6 6 5 3 3 3 8 7 8 12 15 15 15 15 14 12 11 11 11 10 13 14 15 16 16 18 21 25 24 21 25 30 30 28 28 28 27 27 27 26 26 24 21 21 20 19 20 20 19 17 17 16 14 13 13 13 12 11 11 11 11 8 7 8 7 6 4 3 3 3 3 3 3 3 2 2 2 3 3 3 3 4 3 0
9 8 9 10 11 13 12 12 10 3 0 2 4 6 8 3 1 3 8 13 11 12 12 14 13 13 14 13 12 11 11 9 9 13 16 16 17 18 19 22 25 23 22 26 29 30 29 27 27 26 25 26 25 24 21 18 18 18 17 19 20 18 18 18 17 16 15 14 12 11 10 12 12 12 10 9 9 9 8 7 5 5 4 4 4 4 5 5 6 4 5 5 6 6 5 4 1
9 9 10 9 10 12 11 11 10 5 4 4 4 3 8 5 2 3 7 14 12 13 13 15 15 12 13 11 11 12 10 8 9 12 14 16 19 18 17 21 25 21 21 25 24 24 23 22 23 21 20 22 21 18 18 16 16 16 16 18 19 18 17 16 15 15 16 15 12 10 11 14 15 13 12 11 10 10 9 8 7 7 7 8 7 7 6 6 5 4 5 6 6 6 4 3 3
7 9 10 10 10 12 11 12 11 7 4 6 6 6 8 5 4 4 5 14 12 14 15 15 16 13 11 10 11 11 10 9 9 11 12 16 19 18 16 20 18 13 16 18 17 16 14 16 18 18 16 18 19 17 17 16 15 16 17 18 18 17 15 13 14 14 15 15 12 11 12 14 14 14 12 11 9 8 8 6 6 7 9 10 9 7 6 6 5 4 5 6 5 4 3 2 3
7 9 10 11 12 11 11 14 12 7 3 5 3 3 6 4 3 4 4 13 13 13 15 14 14 12 11 10 9 9 10 10 11 12 12 13 17 18 15 12 15 18 20 18 18 17 15 17 18 18 17 19 22 20 19 18 16 18 17 18 18 16 14 14 15 14 15 14 12 14 14 12 12 12 11 9 8 6 6 6 7 8 8 9 9 7 5 5 5 4 4 4 3 3 2 2 4
9 10 10 11 12 11 11 13 11 7 4 5 2 4 6 4 4 6 7 9 16 15 15 15 13 12 11 11 9 8 8 11 15 13 10 11 15 17 14 21 26 24 21 18 18 17 19 22 18 17 20 22 24 23 22 21 19 19 17 17 17 15 14 15 16 15 15 14 12 16 15 11 12 12 10 9 7 7 6 7 8 7 6 7 8 7 4 4 4 2 2 2 1 2 2 3 5
10 10 10 11 9 10 10 8 9 8 4 6 5 5 6 5 5 9 11 7 15 17 15 15 14 12 11 11 9 7 7 10 13 11 11 15 15 18 27 30 29 25 22 19 16 16 19 22 19 17 21 23 24 24 24 22 21 19 16 15 15 15 15 15 15 15 14 14 13 14 13 11 12 12 11 9 6 5 4 4 6 5 4 5 6 6 5 4 4 2 1 1 2 2 4 5 6
7 7 6 7 7 7 7 5 7 9 4 7 6 4 6 7 8 9 11 8 13 16 15 14 13 12 11 10 9 7 8 9 10 11 16 17 16 26 32 28 26 27 27 24 22 20 20 22 21 20 21 23 24 25 24 23 21 19 18 17 16 15 14 13 13 13 12 13 13 12 11 10 10 9 7 7 5 4 3 3 4 4 4 5 5 5 5 4 5 2 2 3 4 3 4 6 7
5 5 4 4 5 5 5 4 7 8 5 9 7 4 6 8 9 10 10 9 11 14 14 14 12 11 10 9 10 8 8 9 12 15 16 19 27 30 29 27 25 26 26 25 25 25 22 23 25 24 23 23 24 26 26 24 22 22 22 19 17 15 14 11 11 12 10 10 11 11 10 9 9 7 5 5 4 3 3 4 5 6 6 6 5 5 5 3 4 4 3 4 3 3 5 6 7
3 4 5 3 5 5 6 7 8 9 7 9 8 4 6 6 9 10 10 11 10 13 12 13 14 13 12 9 10 8 7 9 14 17 17 25 29 25 23 25 25 24 24 25 26 26 23 24 26 27 25 24 24 26 26 24 23 23 23 19 16 14 13 12 12 12 9 8 9 9 7 7 7 5 3 2 3 3 5 6 7 6 6 5 4 4 5 3 4 4 3 3 3 4 5 7 8
3 4 5 4 5 4 5 8 11 12 9 9 10 5 4 5 10 11 12 13 11 14 11 14 16 14 12 9 9 10 8 9 11 14 21 29 27 22 21 22 22 22 24 27 28 28 26 25 27 27 27 26 25 25 25 24 24 23 21 19 16 14 13 12 11 10 9 8 7 6 6 7 6 5 3 2 4 6 7 7 7 6 5 4 4 5 6 5 6 4 3 3 2 4 6 7 7
4 4 5 6 7 5 5 7 10 14 12 10 11 8 5 6 11 12 11 13 12 15 11 14 17 13 10 9 9 11 9 10 9 11 23 28 23 20 20 22 23 24 25 28 30 30 29 26 26 27 27 27 26 26 26 25 26 23 20 18 16 15 14 13 11 9 10 10 9 8 9 7 5 5 5 5 6 8 8 7 8 7 5 4 4 6 6 7 6 4 3 3 3 5 6 7 7
6 6 5 6 8 8 9 8 8 12 13 12 11 10 9 8 11 11 8 9 8 12 10 12 16 13 10 9 9 10 10 9 8 16 26 28 23 19 19 24 26 27 27 29 30 30 29 27 26 27 28 27 27 28 27 26 25 22 20 18 16 16 15 13 11 9 9 10 11 10 10 8 5 6 7 6 7 9 8 7 7 8 6 5 6 6 6 6 6 5 4 4 5 6 5 6 6
10 10 6 6 6 7 11 12 12 11 12 14 12 11 12 11 11 11 8 6 6 10 10 9 13 13 11 10 9 10 9 7 12 24 28 27 25 23 23 24 24 26 28 30 30 29 29 28 26 28 29 27 27 28 27 26 25 23 22 19 16 17 17 16 13 11 10 10 11 11 10 9 7 7 7 6 7 7 6 5 6 7 6 6 7 7 6 5 6 6 5 4 7 7 5 4 5
11 10 7 8 7 6 10 12 14 11 9 14 13 10 14 13 11 12 10 9 7 10 12 9 12 12 11 11 10 9 8 11 19 25 24 24 27 27 27 26 23 23 26 29 30 29 29 29 27 28 29 27 27 27 26 26 26 24 21 18 19 21 21 20 17 14 13 12 13 12 10 10 9 8 8 7 6 5 5 5 6 7 6 6 7 8 7 5 6 6 6 7 8 8 6 5 6
10 8 7 8 8 7 11 15 16 11 7 11 11 9 12 12 11 12 9 7 5 8 11 9 13 12 10 11 10 12 14 15 19 19 16 20 23 22 25 27 23 22 25 27 29 28 28 29 29 29 29 28 26 26 26 25 24 23 21 21 23 23 22 22 20 18 17 16 15 13 11 10 10 10 10 9 7 6 7 7 7 6 6 6 6 8 9 6 6 7 7 9 8 8 7 7 8
9 6 6 6 7 7 11 16 14 7 6 8 11 9 9 11 12 12 7 9 7 8 10 10 15 14 10 10 12 17 16 15 17 15 14 19 20 16 18 21 19 21 24 27 28 28 27 27 29 30 30 29 27 26 25 22 21 21 22 23 23 23 22 22 20 19 19 18 16 14 11 9 10 11 12 11 9 8 7 7 6 5 5 6 6 8 9 7 7 7 8 9 8 8 8 8 8
6 5 5 6 7 6 6 10 8 2 6 6 8 4 4 6 8 8 5 8 8 8 10 9 11 11 10 15 17 17 17 16 16 14 13 17 20 19 19 19 18 22 25 26 28 28 27 28 29 31 31 29 28 25 22 19 20 21 22 22 22 23 21 19 16 15 16 16 16 14 12 10 9 11 13 11 9 7 7 8 7 6 5 5 5 7 7 7 7 7 8 8 9 10 9 7 7
4 4 5 5 8 8 5 9 11 7 4 5 7 4 4 3 3 6 6 5 6 7 9 8 10 16 20 21 17 15 17 17 16 13 13 15 16 20 25 25 23 25 26 27 29 29 29 29 30 31 30 29 27 23 20 20 22 24 25 25 25 24 22 19 17 16 16 15 15 14 11 10 11 13 13 11 9 8 7 8 8 7 6 6 6 6 7 7 8 7 7 7 9 11 11 10 8
4 3 6 8 11 11 8 10 8 6 5 2 6 4 5 5 3 6 6 4 7 6 8 8 12 20 21 18 15 15 15 15 15 15 14 13 14 19 24 28 27 26 26 27 28 29 30 30 30 30 29 27 25 22 22 24 26 28 31 29 27 25 23 21 20 19 18 16 15 14 12 12 13 14 12 11 10 10 10 11 10 8 8 8 8 6 6 8 8 7 7 7 9 10 12 13 11
3 3 5 9 12 9 8 9 6 1 3 2 4 4 3 6 5 8 5 5 8 8 8 7 13 17 15 12 13 14 13 12 13 14 13 13 17 19 20 23 24 24 26 26 25 27 30 30 30 30 28 27 25 24 25 26 27 29 29 28 26 25 22 20 19 18 18 16 15 15 14 12 11 11 10 10 10 10 13 13 10 9 11 12 11 9 9 9 9 8 8 8 9 10 12 14 14
4 4 6 11 12 9 7 5 5 3 2 1 2 5 2 4 5 8 6 5 7 8 8 11 15 16 15 13 12 13 14 13 13 13 13 13 17 20 21 23 23 24 26 25 25 28 30 31 31 31 29 28 27 26 26 26 27 26 26 26 25 23 21 20 19 20 19 17 16 15 13 11 10 10 11 11 10 11 13 10 8 11 14 13 10 10 10 10 9 9 9 8 8 9 9 12 14
5 6 9 11 10 10 7 5 5 2 3 2 3 5 2 4 6 7 6 5 6 8 11 16 17 15 16 15 13 13 14 14 14 14 13 13 16 19 22 23 21 22 25 24 25 27 28 30 31 31 30 29 28 26 25 24 24 24 24 24 24 23 22 22 21 20 18 16 16 16 14 13 13 13 13 11 10 11 11 9 12 15 15 12 11 12 12 11 11 11 10 9 9 10 8 9 11
6 7 9 9 8 9 7 6 4 1 3 3 6 3 2 4 5 4 6 7 7 7 10 15 16 15 15 14 14 13 12 12 13 14 12 12 15 18 20 19 17 18 21 22 23 24 25 27 28 29 29 30 28 26 24 23 23 24 23 23 25 25 23 22 21 19 17 17 18 17 16 16 16 15 13 12 12 11 10 10 14 15 14 13 15 16 14 13 13 12 10 10 11 11 10 10 11
7 6 7 7 7 6 5 5 4 3 2 5 6 3 2 3 6 3 4 5 6 7 9 11 12 13 13 12 13 14 12 11 11 11 10 12 15 17 19 19 18 18 19 21 22 22 23 23 24 26 28 29 27 25 23 24 24 22 21 23 25 24 22 22 21 19 18 19 18 17 16 15 14 13 12 13 14 13 12 10 11 14 15 16 17 16 14 14 14 13 13 12 12 11 11 11 11
7 5 4 3 5 4 3 1 3 2 4 5 6 5 4 3 5 4 4 3 7 12 12 12 11 10 9 10 12 12 12 12 11 9 9 11 13 15 17 18 18 18 19 20 21 21 21 22 22 25 27 28 27 24 23 24 23 20 21 24 25 23 23 23 22 19 19 19 18 17 16 14 13 13 12 12 13 14 14 12 11 14 17 17 17 15 14 15 15 15 15 15 15 13 13 13 12
5 5 4 1 2 2 2 2 3 4 4 4 7 6 5 4 2 3 5 7 7 11 13 14 13 12 9 10 11 11 11 11 10 8 8 9 9 11 13 14 16 19 20 21 21 20 21 21 22 25 26 26 25 23 22 24 22 19 23 25 24 24 24 23 22 20 18 19 20 19 17 16 15 14 14 14 13 14 14 13 12 14 16 15 16 16 16 15 14 15 15 15 15 14 14 13 12
4 5 5 3 2 1 2 3 2 3 4 6 8 7 4 1 1 3 7 8 5 8 13 15 15 14 12 11 11 10 10 9 7 6 6 6 7 10 14 15 17 20 23 24 22 20 20 20 21 24 23 23 23 21 21 23 20 19 23 25 24 24 23 21 22 21 19 20 20 19 17 17 17 16 16 15 15 15 14 14 14 14 15 15 16 16 16 15 14 15 14 14 14 15 15 15 13
4 4 5 4 4 4 3 2 2 3 3 5 5 5 2 2 2 2 8 10 9 9 10 13 13 13 12 12 12 11 11 8 4 3 3 4 5 10 17 19 20 21 23 24 22 19 20 22 23 24 24 23 22 20 20 21 18 18 23 24 23 22 21 21 21 20 20 19 18 18 19 19 18 17 16 16 17 17 16 16 16 15 16 16 17 17 16 16 16 16 15 14 14 15 16 18 17
3 2 2 4 4 5 3 2 4 4 1 3 1 1 1 3 3 2 9 11 11 11 11 10 9 9 11 13 12 11 12 9 5 2 2 4 5 10 15 15 14 18 20 20 20 19 21 24 24 25 26 25 23 21 21 20 17 18 22 22 21 21 20 21 20 19 19 18 17 19 20 20 19 18 18 17 17 17 18 18 18 16 15 15 16 16 16 17 17 17 17 16 16 16 17 17 17
2 1 2 6 5 7 5 2 2 3 2 2 1 2 1 2 1 3 10 11 10 11 11 10 8 8 11 12 11 11 12 11 7 6 6 6 8 10 9 8 6 11 16 17 18 18 20 22 22 24 26 26 25 24 22 21 18 18 21 21 20 20 20 21 20 19 19 17 17 20 21 20 19 18 17 17 17 18 18 18 17 17 16 15 15 15 16 16 17 17 17 17 16 16 17 17 16
3 1 5 3 2 2 4 2 1 3 1 3 3 5 3 3 0 1 8 10 8 9 10 10 11 12 11 11 12 11 11 11 9 8 7 7 8 8 8 7 6 11 16 18 17 15 17 20 20 22 23 23 25 25 24 23 20 19 21 20 19 19 19 20 20 19 19 18 18 20 20 19 19 18 16 17 17 17 17 17 17 17 17 16 16 16 16 17 17 18 18 17 17 17 18 17 16
5 4 5 2 3 1 1 2 2 2 2 3 1 3 2 2 1 2 6 8 7 7 8 10 10 11 11 10 11 12 11 10 8 7 6 7 8 10 10 8 7 12 15 16 15 13 14 18 17 17 18 20 23 24 24 24 22 21 22 21 19 18 19 21 20 19 18 18 18 19 19 18 18 17 17 17 16 16 17 17 17 17 17 17 17 17 17 17 18 18 17 17 17 18 19 17 15
5 3 0 2 4 3 1 2 3 3 2 2 2 2 2 2 3 3 6 7 8 8 7 8 9 8 9 9 9 10 10 9 8 8 6 6 7 10 11 11 12 11 9 9 11 11 13 16 16 18 19 19 20 22 23 24 23 23 23 21 18 17 20 21 21 20 18 17 17 18 18 17 17 17 16 16 15 15 16 16 16 18 18 18 17 17 17 18 18 18 18 17 16 16 17 16 15
4 4 2 1 2 2 1 1 2 4 2 2 1 1 4 4 3 3 7 7 7 8 7 7 7 8 8 8 8 8 8 8 8 8 6 5 7 9 9 11 12 11 8 6 8 10 12 13 15 19 21 20 19 21 22 23 23 23 24 22 17 16 20 22 20 20 18 17 16 16 16 16 16 16 16 15 14 14 14 14 16 17 17 17 16 16 16 17 18 17 16 15 14 14 15 15 15
3 1 2 1 2 4 3 2 3 2 3 2 4 2 4 4 3 2 4 6 6 7 8 7 7 8 7 6 7 7 7 8 7 7 7 5 6 9 11 10 10 11 8 6 6 9 9 11 15 20 23 22 20 20 21 22 23 23 23 21 16 16 19 20 19 19 18 16 15 15 15 15 15 15 15 14 13 13 13 13 14 15 14 15 15 15 15 16 16 16 15 15 15 15 15 15 15
Wind_Direction
219 221 221 241 266 296 294 224 167 254 200 263 249 243 244 227 238 264 267 274 295 288 350 79 71 73 87 91 92 74 51 29 47 110 117 132 114 123 135 138 142 145 145 146 147 147 147 148 149 148 149 150 153 153 149 146 145 146 143 140 138 136 133 126 121 118 116 116 120 124 126 126 123 120 116 113 111 110 110 110 111 111 110 108 106 101 101 99 98 101 100 104 104 98 97 99 102
211 223 221 244 269 282 282 183 180 248 169 266 246 226 256 252 243 250 259 272 270 245 28 67 74 86 94 89 81 69 58 46 66 82 99 118 112 117 132 139 144 144 144 146 147 146 147 148 149 149 150 151 153 151 149 148 147 147 144 142 140 138 134 128 123 122 123 122 125 129 132 131 129 126 121 118 115 113 111 112 115 116 116 113 110 108 107 104 103 104 101 103 103 100 97 100 108
217 237 252 258 260 233 284 251 210 239 171 245 251 228 261 269 252 256 261 219 183 102 56 57 56 72 85 74 62 65 69 64 82 90 110 119 109 117 133 140 143 142 143 145 146 146 146 148 151 151 151 151 153 151 150 149 149 149 146 144 142 140 137 131 128 127 127 126 128 131 135 136 134 131 127 125 121 118 120 124 124 121 122 119 117 115 113 111 108 106 104 100 99 103 102 105 113
225 231 257 266 265 223 282 238 199 224 216 239 259 243 245 248 246 264 284 101 48 45 52 66 53 42 75 80 70 66 67 62 85 98 107 112 115 129 136 138 139 138 140 143 145 145 144 148 152 152 151 152 152 151 151 151 151 149 148 146 144 141 138 135 134 131 129 129 129 132 136 138 138 136 133 132 129 129 134 134 129 124 125 124 123 121 119 115 110 108 108 101 100 107 107 108 117
233 230 247 256 260 241 195 239 201 202 230 235 269 276 265 258 184 106 304 3 36 45 51 82 92 44 64 71 73 78 83 67 75 88 90 107 121 131 136 137 136 134 137 142 145 144 143 148 153 153 152 152 151 152 153 154 153 151 150 148 145 143 141 140 139 134 131 131 130 131 134 137 140 139 139 138 137 140 142 139 133 128 124 125 125 126 125 117 112 110 108 107 107 108 107 111 121
234 245 252 243 257 310 245 254 242 235 238 233 259 270 275 286 119 108 114 19 28 46 68 83 105 88 75 60 59 65 125 104 87 98 107 119 128 134 137 137 133 132 138 143 146 145 144 149 153 153 153 151 151 154 155 156 154 153 152 150 146 144 143 144 142 136 132 132 131 130 132 136 139 141 144 144 144 144 145 143 136 133 128 129 128 128 126 118 115 112 112 111 109 109 110 116 124
220 258 260 216 261 290 242 257 256 260 250 235 245 257 258 247 198 130 153 71 15 25 79 100 106 92 86 93 67 44 87 112 106 112 122 130 134 134 136 133 129 132 140 145 147 145 145 151 153 153 153 152 154 156 158 158 156 155 154 151 148 146 147 147 143 137 135 133 132 133 135 137 138 140 144 145 145 143 141 141 140 138 136 136 134 131 124 119 120 120 122 109 107 113 114 120 127
221 245 279 163 250 244 218 258 257 261 262 255 256 264 260 221 183 134 134 109 90 79 117 129 110 87 67 88 91 46 82 109 112 118 126 131 133 132 132 129 128 134 143 146 146 144 145 152 153 153 153 154 157 158 160 159 157 156 155 153 150 149 149 148 144 139 136 134 135 137 137 135 134 134 137 139 139 136 131 136 140 135 137 139 139 133 121 122 131 133 130 103 111 118 115 121 127
221 215 294 202 222 255 244 253 253 256 260 263 263 268 263 211 123 72 53 62 136 179 115 125 100 98 97 86 92 59 88 112 117 121 128 130 132 132 131 130 132 137 143 146 145 145 147 153 153 153 153 155 158 160 162 159 158 158 157 155 151 151 151 148 144 140 138 136 138 139 137 131 130 130 130 132 132 130 123 126 129 126 132 136 136 135 129 134 143 143 128 107 126 123 114 118 123
205 191 253 256 216 254 257 254 252 255 256 257 259 252 218 166 102 80 47 30 348 20 84 89 86 110 113 95 94 90 110 119 119 121 127 131 132 134 133 132 138 141 143 147 147 147 148 152 153 153 154 156 160 161 162 160 159 159 158 155 152 152 151 149 146 144 142 140 142 142 139 133 132 130 127 128 129 129 125 124 126 126 129 131 133 139 141 147 150 147 127 109 136 132 114 113 112
196 205 201 272 250 248 247 255 254 258 259 259 262 241 181 137 102 90 56 339 332 7 102 93 97 111 102 97 100 125 122 119 120 123 127 128 125 129 134 136 144 147 146 149 147 147 147 150 152 153 155 157 160 161 160 160 160 159 158 155 153 154 152 151 149 147 144 144 147 145 142 140 140 136 131 131 131 131 130 130 132 133 132 133 132 135 141 149 151 151 134 103 140 147 129 106 97
241 232 169 227 234 236 244 255 259 264 266 266 267 230 160 125 108 123 139 208 245 260 178 119 130 118 101 112 119 132 121 117 125 128 126 123 118 121 131 139 143 146 147 149 148 147 148 150 151 154 157 159 160 160 160 160 159 159 157 154 155 156 153 152 150 146 146 149 151 146 143 145 145 143 138 134 130 130 133 137 141 139 136 138 133 133 139 146 151 149 137 106 132 155 142 105 90
230 240 183 230 228 233 251 258 264 272 282 274 258 171 153 126 120 155 154 196 274 290 19 117 136 114 106 124 122 138 123 126 131 126 120 118 121 121 127 136 138 143 148 150 149 148 150 151 154 158 159 158 158 159 161 160 159 160 158 155 154 155 152 151 147 146 150 153 152 150 147 147 148 148 144 131 126 127 133 142 145 139 130 131 128 128 136 148 155 147 134 114 121 143 136 101 85
217 241 212 251 256 248 255 260 267 275 283 276 278 117 123 109 124 102 85 47 50 93 96 104 115 89 104 132 127 159 136 136 134 124 119 117 125 125 125 130 134 142 147 150 150 148 151 153 158 162 159 156 158 159 160 160 160 160 159 155 152 152 151 148 147 150 153 153 154 154 152 150 151 154 150 136 130 130 132 139 138 132 120 120 121 117 130 150 163 156 140 127 126 136 138 45 77
209 243 236 258 269 266 264 260 267 272 264 249 264 335 85 46 99 76 55 53 70 91 96 110 117 93 141 168 148 173 144 139 135 125 122 120 125 125 126 130 134 143 146 147 147 149 152 156 162 163 158 157 158 158 157 159 161 161 158 153 151 153 151 147 150 153 149 151 156 157 156 154 155 157 154 143 134 129 126 131 128 119 106 103 106 104 118 137 162 179 186 166 138 144 213 339 78
204 231 246 261 263 268 266 262 272 273 267 258 269 173 110 36 92 98 96 85 80 58 50 68 143 130 162 163 144 153 143 139 134 128 124 122 125 127 131 134 138 144 146 145 145 150 154 158 163 162 159 160 160 159 159 161 165 164 159 152 151 154 150 147 152 152 145 147 155 159 160 157 155 157 156 143 132 127 129 134 130 112 87 78 76 79 83 85 96 167 204 198 172 165 251 135 119
207 218 238 264 259 259 263 259 265 267 285 319 340 11 58 76 91 113 104 87 85 74 62 46 31 107 142 135 139 141 140 139 133 129 125 124 128 132 139 140 141 143 146 146 148 153 157 160 163 162 163 164 163 163 165 166 167 166 159 152 152 154 151 152 155 152 148 149 157 162 160 154 151 153 150 139 133 138 138 135 135 111 74 73 74 73 70 63 58 59 119 195 204 189 154 145 120
220 206 221 242 249 252 258 257 267 299 358 356 5 19 23 56 83 349 68 88 88 80 76 71 61 71 102 123 134 135 139 139 134 132 131 133 135 143 149 146 143 145 149 150 154 158 159 162 164 164 163 163 165 168 170 168 164 161 155 151 152 151 152 160 159 154 153 154 159 159 156 151 148 151 146 139 143 148 148 144 142 95 69 76 80 78 75 72 69 72 82 125 164 165 152 140 116
229 213 218 227 239 251 259 267 286 303 332 7 34 32 2 7 72 22 100 103 99 88 84 88 86 87 101 122 129 131 139 139 136 137 139 144 146 154 154 148 150 151 154 157 159 161 161 165 169 167 161 160 164 168 169 164 159 158 152 150 148 144 152 166 164 160 156 157 160 158 157 154 151 149 139 139 151 152 156 162 154 106 78 77 84 85 81 79 73 75 85 103 120 141 141 127 111
231 222 231 239 237 252 261 267 279 281 294 33 79 85 335 321 25 141 109 94 97 108 112 105 108 117 121 129 130 133 139 140 140 141 147 154 156 159 155 153 156 155 160 162 159 161 165 168 171 168 161 161 163 163 163 161 160 159 153 151 145 139 155 172 168 163 157 160 161 159 163 159 154 147 140 149 158 155 160 167 155 125 99 82 88 89 86 82 76 76 78 89 102 122 134 134 139
224 216 225 251 249 259 261 259 271 279 300 55 111 108 35 328 350 64 88 92 107 141 142 132 131 135 136 138 137 137 141 144 146 147 154 162 162 162 160 159 159 161 163 162 158 161 166 170 171 168 163 163 163 162 161 163 164 161 156 152 140 136 155 172 172 168 163 164 161 164 173 166 160 154 150 158 161 161 165 169 160 133 108 95 98 93 91 80 74 83 80 93 115 129 146 165 177
236 235 225 240 251 265 268 271 289 305 352 43 25 19 1 339 356 342 36 121 155 150 138 138 139 141 141 141 142 141 147 152 152 156 164 166 165 164 162 157 157 164 162 158 160 162 168 172 172 168 164 164 164 165 164 168 168 164 160 153 139 138 154 167 172 171 170 170 164 171 178 172 172 166 158 156 157 167 169 174 175 146 110 100 109 105 98 73 63 97 110 143 186 168 198 218 221
237 254 236 233 237 252 268 280 291 319 6 40 19 343 339 0 7 332 64 121 138 132 132 136 138 139 137 138 144 148 153 159 157 165 171 164 164 165 162 155 158 166 161 157 161 164 168 172 172 167 164 165 166 167 167 168 169 167 162 152 143 144 159 170 171 170 175 179 173 176 178 177 183 177 171 167 165 171 171 175 180 160 130 117 131 137 133 175 227 227 228 237 265 280 282 277 20
236 247 246 243 241 249 261 270 266 256 320 77 51 331 322 343 315 354 95 121 132 128 126 125 127 130 132 138 147 152 156 161 162 169 172 166 163 162 158 156 161 166 157 157 162 164 168 169 167 162 162 162 162 164 163 162 167 169 159 147 144 152 169 175 168 165 173 180 181 186 185 182 187 186 189 188 177 177 180 184 189 187 188 188 187 183 183 203 224 239 245 251 268 275 282 285 331
243 241 245 248 250 258 265 270 267 235 190 137 124 269 283 280 337 349 120 134 138 133 126 123 127 132 136 145 149 153 159 161 167 171 169 166 165 161 154 156 165 168 155 155 158 160 163 158 153 153 154 153 151 152 152 154 161 162 154 145 146 158 176 178 166 161 169 178 184 193 189 184 190 192 194 192 183 182 189 195 198 203 209 211 211 209 207 215 236 247 254 268 273 272 270 287 337
249 245 245 243 248 258 264 271 274 264 209 146 159 202 253 278 30 330 163 147 150 141 134 131 134 142 146 149 152 156 160 164 172 174 167 164 162 160 160 158 156 141 130 133 130 131 136 133 141 153 148 136 136 135 141 153 158 155 151 148 151 159 172 177 167 164 173 180 182 182 178 180 190 197 195 187 183 186 192 200 208 212 214 218 220 218 213 225 247 241 247 270 269 274 273 299 3
260 262 256 244 245 251 254 261 267 275 244 140 142 208 245 254 110 285 226 150 155 142 135 138 137 145 151 149 157 157 160 174 176 172 165 159 158 160 159 130 95 90 106 113 111 118 134 143 149 153 144 135 136 138 147 157 158 156 154 152 156 161 169 173 168 170 180 186 184 181 179 179 191 204 204 191 186 186 192 209 219 216 211 213 220 221 211 218 242 239 239 264 272 309 328 355 33
279 286 284 263 253 252 251 256 266 283 257 147 135 252 249 242 169 227 249 164 155 148 141 145 144 147 151 152 163 162 164 175 173 172 159 151 159 150 109 80 79 86 101 110 114 126 145 152 146 135 140 144 142 146 156 160 158 156 154 158 162 165 171 174 174 178 186 190 187 185 189 189 192 203 208 199 196 190 195 220 221 214 211 210 213 214 210 209 225 233 235 247 277 6 44 51 42
278 283 287 283 279 262 250 253 270 280 243 160 166 239 247 243 208 210 237 202 152 152 151 152 152 149 155 159 166 171 165 167 169 167 151 154 156 115 89 85 93 100 110 123 137 146 146 147 142 132 143 149 146 150 156 159 160 157 157 166 168 167 173 176 178 180 185 192 187 186 194 195 193 200 204 200 200 197 200 231 226 216 215 218 215 207 201 202 199 168 159 175 133 101 78 64 59
267 272 268 282 297 276 252 236 260 268 221 168 171 222 241 238 232 216 229 216 155 155 159 157 155 150 159 161 162 168 153 156 159 147 146 142 113 94 97 105 114 123 133 144 153 158 154 149 144 136 144 151 150 151 153 155 160 162 167 172 167 168 172 173 176 176 181 189 186 186 190 194 197 200 204 201 198 199 200 215 216 213 214 220 225 213 201 195 193 170 104 130 124 98 71 65 68
274 283 274 259 265 274 274 243 242 254 210 176 176 208 237 231 231 224 229 221 169 161 164 159 156 153 159 158 157 161 147 149 142 141 141 115 98 100 113 125 130 135 139 144 153 161 160 151 145 139 139 145 148 149 150 155 161 165 170 170 166 168 167 167 175 175 178 183 184 191 190 193 205 199 195 200 194 189 193 195 194 200 203 204 215 215 210 197 176 158 116 120 113 80 70 68 70
274 267 276 256 236 251 270 255 238 241 221 189 186 211 233 226 236 228 226 229 178 164 174 161 156 155 156 159 158 152 145 143 136 142 129 102 102 112 126 134 133 133 134 141 154 160 156 151 151 146 139 140 146 149 151 156 162 165 169 169 167 166 161 164 174 173 173 179 189 198 189 186 195 184 161 169 179 179 189 200 198 201 195 190 189 177 182 170 145 140 126 125 100 83 77 73 80
268 234 243 249 246 244 246 244 236 237 232 199 195 210 219 218 247 238 224 229 179 163 178 159 158 161 157 163 160 150 143 138 136 140 119 104 110 122 129 134 132 136 141 148 154 153 152 155 156 149 143 144 146 148 150 156 160 160 163 165 163 161 158 160 166 165 163 170 178 174 158 157 154 138 135 158 178 178 184 200 205 208 202 188 168 141 142 136 130 133 135 136 95 94 89 80 92
270 241 226 239 241 239 241 239 231 229 227 211 199 203 215 218 239 240 224 223 185 168 173 154 160 166 161 166 158 150 145 148 152 129 111 108 116 122 127 132 135 142 149 152 152 150 151 155 155 152 150 148 147 149 152 155 158 157 156 157 156 155 152 147 147 148 150 150 149 138 127 129 133 148 169 176 178 174 178 196 206 207 202 187 155 129 130 134 139 148 139 127 107 106 96 87 104
243 241 221 232 233 235 244 245 235 220 211 211 202 198 218 232 241 252 239 221 196 176 166 148 159 162 159 167 158 151 149 151 134 106 106 110 114 109 113 128 138 143 147 150 149 150 151 150 152 156 155 151 147 150 151 151 155 156 152 150 151 147 141 138 135 129 131 133 128 120 120 134 158 167 164 162 166 173 181 199 206 200 194 181 157 136 136 143 146 152 143 125 114 108 97 96 111
240 248 237 234 236 238 241 241 240 225 201 203 201 189 207 225 240 258 263 256 243 194 172 139 150 157 155 161 161 153 149 130 98 98 103 106 110 110 117 134 147 147 147 150 150 151 151 149 151 154 155 153 149 149 149 149 150 151 150 150 151 146 139 139 131 112 105 109 114 120 136 153 161 153 151 162 168 172 181 196 195 184 182 175 160 149 152 160 157 154 154 140 124 120 120 119 125
254 264 271 270 268 261 255 250 239 223 193 199 197 176 197 214 230 246 257 271 261 183 169 145 144 156 154 157 159 137 109 81 83 91 97 103 113 124 134 144 154 150 148 152 151 151 151 152 153 152 154 154 150 148 147 148 148 148 150 147 142 142 141 138 129 121 121 117 118 127 136 140 145 146 148 158 168 174 172 170 168 166 166 162 156 160 165 165 157 150 145 139 137 139 140 137 144
263 271 281 286 283 279 281 275 250 219 176 188 183 164 193 205 217 235 232 236 236 157 160 156 145 154 158 154 137 102 87 80 83 88 98 109 117 130 138 145 153 150 147 152 153 153 152 154 154 152 153 153 150 149 147 147 148 149 148 142 137 136 138 136 129 133 140 134 127 126 126 129 140 146 143 140 137 148 154 153 158 163 164 160 155 163 170 165 155 155 149 145 148 146 140 146 153
254 263 272 277 280 291 293 287 267 207 150 178 179 173 200 201 209 228 202 179 192 164 168 163 150 161 166 142 110 94 97 102 108 115 121 119 121 130 138 142 148 147 149 153 155 155 155 155 155 153 154 153 151 150 150 150 151 150 145 143 141 135 133 135 132 132 137 136 132 131 136 138 137 138 136 128 120 126 132 133 146 156 157 159 160 162 167 170 166 167 162 156 155 141 131 148 163
242 235 255 267 272 288 297 303 314 84 108 136 154 169 236 209 210 238 222 184 189 172 164 152 143 145 126 110 105 109 117 120 124 128 127 125 131 141 142 142 149 154 157 157 156 156 158 158 157 156 158 155 152 152 153 151 151 150 145 144 143 136 133 135 132 131 133 133 135 140 149 147 137 141 141 129 121 128 129 122 124 129 128 132 146 154 157 167 176 174 166 166 162 145 137 151 164
262 227 240 266 273 283 300 314 332 4 34 82 95 41 324 279 241 267 267 200 186 163 141 121 98 94 98 103 108 116 121 125 126 125 129 133 141 149 146 148 161 167 166 162 159 160 161 161 160 160 159 155 154 154 148 143 146 144 137 135 134 131 131 134 134 136 136 135 139 139 138 135 129 132 136 131 132 137 139 133 120 118 123 123 130 141 143 151 167 172 164 169 166 155 154 160 160
294 247 239 255 265 279 299 307 328 0 339 2 86 64 303 300 283 269 274 192 180 151 132 128 100 96 105 112 114 117 119 125 126 129 139 141 146 154 153 158 169 173 171 166 163 163 163 162 162 160 156 154 157 154 145 142 144 141 137 135 133 132 133 139 143 144 140 138 141 138 131 132 128 124 122 127 137 134 131 137 132 130 132 127 124 133 149 149 151 160 163 168 168 160 161 162 158
273 247 251 263 264 268 278 295 317 350 247 255 104 129 254 302 294 264 251 170 164 147 132 118 104 107 116 120 124 127 126 125 125 135 147 147 152 160 162 166 172 173 172 168 164 163 163 163 163 160 156 157 158 153 148 147 146 144 144 141 139 137 138 145 149 147 144 142 143 139 133 132 130 130 126 128 140 136 129 129 132 140 133 128 129 128 142 146 139 146 152 157 159 153 158 162 157
237 228 251 266 269 260 243 254 277 250 199 203 125 136 176 289 270 259 240 169 157 156 130 94 100 116 120 123 132 132 130 132 133 144 155 158 160 163 166 171 174 173 170 168 165 163 164 164 163 161 159 161 161 156 152 152 151 149 146 143 140 140 140 144 147 145 144 146 146 141 138 137 135 138 134 128 127 131 134 120 112 138 132 126 136 129 129 136 131 134 134 136 146 145 151 156 155
235 221 236 256 267 265 247 218 245 256 72 328 249 148 142 270 266 273 255 206 181 169 131 107 115 125 125 131 136 130 134 139 142 152 163 165 163 163 167 171 173 169 165 165 165 165 166 165 164 164 164 164 163 159 154 154 153 147 142 141 140 139 138 139 142 143 143 147 150 146 145 142 136 134 135 139 136 131 137 114 104 130 132 120 126 121 117 124 126 129 128 129 136 138 140 139 144
227 225 240 261 268 270 260 219 220 149 106 264 255 163 147 272 280 279 245 213 192 170 127 118 126 128 130 137 130 127 135 136 143 158 163 156 157 161 163 164 163 159 159 161 162 163 165 166 166 165 165 165 163 158 153 151 149 145 143 145 142 139 139 140 141 143 147 152 151 145 141 136 133 130 125 132 139 135 142 126 105 119 131 120 115 111 108 112 117 121 123 130 137 138 136 127 128
218 222 237 260 267 274 263 208 156 108 204 240 242 215 167 263 284 266 235 217 173 140 116 118 121 121 130 131 124 132 138 137 152 159 140 128 143 157 160 158 153 149 154 156 157 161 164 166 168 165 164 164 160 156 153 151 149 149 150 150 147 144 145 146 146 147 151 151 144 139 139 138 138 137 124 120 126 127 136 136 111 113 125 125 119 115 110 107 107 110 110 114 123 128 129 125 124
211 214 209 257 286 311 334 319 132 155 250 229 211 217 184 206 281 297 325 8 118 125 123 126 121 116 124 121 122 132 134 141 155 148 124 121 139 160 162 153 146 146 150 153 156 162 166 167 168 166 165 163 158 156 156 157 157 154 153 153 151 151 153 153 152 152 152 150 145 141 141 141 141 143 137 125 123 126 132 134 121 114 118 123 122 117 115 112 108 109 109 107 109 111 114 119 122
191 197 184 191 309 326 333 287 196 203 246 219 188 204 208 195 260 331 11 38 99 123 125 130 126 120 120 113 114 125 133 143 150 141 137 139 146 157 150 141 144 149 152 155 159 165 169 169 168 167 166 163 160 159 162 165 162 153 153 155 154 156 158 158 158 158 156 156 155 149 143 141 142 142 138 130 128 133 137 138 131 117 110 115 120 115 115 117 114 114 114 112 109 106 106 109 115
173 174 159 161 159 157 265 264 224 216 253 238 204 204 229 229 19 27 51 56 71 99 114 126 128 129 132 115 105 116 126 128 135 144 145 140 142 141 138 149 162 159 158 162 163 166 170 169 169 170 168 164 163 163 167 169 161 150 153 156 156 159 159 158 160 161 160 161 158 153 149 145 143 143 140 137 135 135 135 139 138 125 110 109 119 121 118 116 114 112 113 114 110 104 100 98 104
215 201 158 164 160 158 210 230 202 218 265 272 224 197 204 180 196 122 80 68 55 63 94 117 124 132 131 115 105 107 111 113 125 145 105 76 111 139 150 165 174 165 160 164 164 163 169 172 172 173 169 168 170 169 170 168 159 154 156 156 157 159 159 160 162 162 162 161 158 156 153 148 145 145 144 141 139 136 133 134 135 128 115 109 114 118 115 114 111 107 108 110 109 104 97 90 96
271 245 177 207 192 151 159 214 195 173 41 324 274 180 188 171 193 112 84 70 57 59 73 95 112 125 118 112 113 112 118 126 126 125 76 74 132 165 164 165 175 167 157 160 165 168 174 175 175 175 173 173 175 174 173 168 159 158 160 158 158 159 160 162 164 164 163 161 162 161 155 149 147 146 144 142 141 138 133 129 128 127 122 116 115 116 115 116 114 110 109 108 107 106 99 91 92
288 332 213 229 201 145 135 246 261 91 80 286 101 101 104 99 26 48 78 69 58 60 62 67 74 86 97 107 116 120 131 140 149 169 170 153 162 173 155 129 143 158 151 155 169 177 181 178 176 179 178 177 178 178 176 171 162 160 162 160 160 162 165 167 166 165 163 162 164 160 154 150 150 149 146 143 140 137 135 133 130 129 128 123 120 120 122 122 119 118 115 111 110 110 103 97 96
141 202 219 252 358 87 114 142 324 61 115 257 147 143 156 117 146 56 81 77 69 69 69 66 64 73 84 98 115 126 138 146 160 172 166 162 159 141 126 122 135 152 154 161 170 178 183 182 182 184 182 178 178 179 178 176 169 163 163 163 164 167 170 170 165 162 161 163 162 157 153 153 152 150 146 143 141 140 139 137 133 131 129 126 123 121 122 122 118 116 115 113 113 114 109 104 104
170 203 205 147 57 3 38 113 189 140 158 285 346 126 117 103 196 166 106 104 99 87 81 79 75 83 95 106 121 131 137 143 154 157 155 172 160 129 128 153 173 162 156 160 166 172 180 184 187 188 185 182 181 181 180 179 175 167 164 165 168 174 176 171 165 162 161 161 158 155 154 154 152 149 146 145 145 143 140 137 134 134 131 128 128 125 124 123 120 117 118 119 117 116 114 110 109
223 252 5 102 131 161 166 149 164 143 162 277 343 22 328 266 248 192 145 132 122 113 98 89 90 98 108 119 128 133 140 143 147 153 159 166 146 128 142 174 186 169 141 140 161 173 180 184 187 186 185 183 183 185 184 180 176 171 169 169 170 174 174 169 163 163 163 158 155 155 156 154 151 151 149 148 147 143 141 140 138 137 135 133 131 128 126 124 123 122 120 121 121 118 115 113 113
254 255 225 137 117 124 123 189 172 136 140 200 120 0 275 259 251 179 145 131 127 128 117 104 107 111 114 125 131 135 141 137 140 150 147 134 118 125 162 184 175 161 146 142 168 184 184 184 187 185 184 183 183 185 184 179 175 172 171 172 170 167 168 166 164 165 162 155 151 153 156 154 153 154 153 150 148 145 143 143 141 139 136 136 135 133 132 129 126 126 126 127 128 126 123 121 119
25 320 281 184 130 113 96 315 272 132 114 177 157 159 269 287 335 22 109 116 121 124 120 114 110 111 115 124 127 135 139 134 141 142 130 131 128 142 175 177 143 142 147 135 169 199 201 195 190 185 185 185 183 183 181 178 176 175 173 172 168 163 163 163 164 165 162 158 153 150 152 155 155 157 155 151 151 150 147 144 142 142 141 142 140 138 141 140 134 133 138 139 137 135 134 133 130
Height
768 770 771 772 772 773 774 774 788 785 784 797 786 779 763 744 744 742 737 730 730 723 708 707 707 711 722 737 742 742 745 749 753 760 773 767 756 758 756 758 759 761 765 767 768 769 770 773 775 777 779 781 783 785 787 789 790 791 793 794 795 797 798 800 801 803 804 805 806 807 808 809 810 812 812 813 814 815 816 817 818 819 820 820 820 821 822 823 824 824 825 825 826 826 826 826 826
769 771 770 772 771 775 776 772 791 790 791 801 781 770 755 740 745 743 738 732 730 719 707 706 708 717 723 729 731 738 747 746 744 749 757 757 758 760 759 760 760 761 765 767 769 770 771 773 776 778 780 782 784 786 788 790 791 792 793 794 796 798 799 801 802 803 804 805 806 807 809 809 811 812 813 814 815 816 817 818 819 820 820 821 822 822 823 824 825 825 826 826 826 827 827 827 827
769 770 770 773 772 774 775 775 791 793 796 800 776 759 748 747 746 737 732 726 720 709 706 709 713 721 726 735 737 746 755 747 744 749 755 756 758 762 762 761 761 763 765 768 770 770 772 774 777 779 781 783 785 787 789 790 791 793 794 795 797 798 800 801 803 804 804 806 807 808 809 810 811 812 814 815 816 817 818 819 819 820 821 822 822 823 824 824 825 826 826 827 828 828 828 828 828
769 770 771 773 775 776 778 782 788 792 796 791 773 755 745 747 739 732 728 719 712 706 708 715 727 726 726 744 745 749 757 749 747 750 756 757 757 762 763 762 764 765 766 769 770 772 774 776 778 780 781 783 785 788 789 791 792 793 795 796 798 799 801 802 803 804 805 806 807 809 810 811 812 813 814 815 817 817 818 819 820 821 821 822 823 824 824 825 826 826 827 828 828 828 828 829 829
769 770 771 773 779 777 778 781 779 786 788 779 770 753 742 739 732 729 724 717 711 709 712 719 735 731 729 742 744 753 758 751 750 749 756 759 758 761 763 764 765 766 768 769 771 773 774 777 779 780 782 784 786 788 789 791 793 794 796 797 799 800 802 803 804 805 806 807 808 809 810 811 812 813 815 816 817 818 819 820 820 821 822 823 823 824 825 826 826 827 828 828 829 829 829 830 830
768 770 770 772 775 771 778 785 781 781 770 763 763 749 739 734 728 725 721 718 711 709 712 721 733 735 742 744 742 750 750 750 753 752 756 760 760 761 763 765 766 768 769 770 772 773 775 778 780 781 783 785 787 788 790 791 793 795 797 798 800 801 803 803 804 806 807 808 809 810 811 812 813 814 815 817 818 818 820 820 822 822 823 824 824 825 826 827 827 828 829 829 830 830 830 831 831
769 772 771 774 774 770 784 790 783 777 758 750 751 742 736 730 724 722 721 721 718 713 713 725 728 737 752 748 747 748 743 747 750 754 757 759 761 761 763 766 767 769 770 772 773 774 777 779 780 782 784 785 787 788 790 792 794 795 798 799 801 802 803 804 805 807 808 809 810 811 812 813 814 815 816 817 819 820 821 822 823 823 824 825 825 826 827 827 828 829 829 830 831 831 831 832 832
769 773 770 777 780 776 784 786 779 771 754 742 738 735 731 725 720 720 722 723 724 719 716 723 722 742 758 747 755 754 745 748 748 755 757 758 761 762 765 767 768 770 771 773 774 776 778 780 782 783 784 786 787 789 790 792 794 796 799 800 802 803 804 805 807 808 809 810 811 812 813 814 815 816 818 819 820 821 822 823 824 824 825 826 826 827 828 828 829 829 830 831 832 832 832 833 834
769 773 771 777 783 781 782 781 773 761 750 740 733 730 725 719 717 719 723 722 722 720 719 720 720 745 760 751 760 756 749 752 751 756 757 760 762 763 767 767 769 770 772 774 775 777 778 781 782 783 785 786 788 789 791 793 795 797 799 801 802 804 805 806 807 809 810 811 812 813 814 815 817 818 819 820 821 822 823 824 825 826 826 827 827 828 828 829 829 830 831 832 833 834 834 834 835
770 771 773 777 781 786 785 778 768 756 745 736 729 725 721 717 716 718 722 723 720 721 722 720 726 745 756 758 762 757 754 754 752 757 758 760 761 764 767 767 769 770 773 774 776 777 779 782 782 784 785 786 789 790 792 794 796 797 800 801 803 804 806 807 808 810 810 812 813 814 815 816 818 819 820 821 822 823 824 825 826 827 827 828 828 829 829 829 830 831 832 833 834 835 835 835 836
773 770 770 779 785 788 786 776 764 753 741 732 725 719 718 715 716 719 720 722 718 722 725 725 737 745 752 761 762 757 754 754 753 757 758 759 761 763 765 767 770 771 773 774 776 778 780 782 783 785 785 787 789 791 794 795 797 799 801 802 804 805 806 808 809 810 812 813 814 815 816 817 819 820 821 822 823 824 825 826 827 828 828 828 829 829 830 830 831 832 833 834 835 835 836 837 837
776 771 771 784 786 783 777 771 762 750 740 734 727 717 715 713 718 722 722 724 719 722 722 724 737 740 754 765 760 756 754 755 755 756 758 759 761 763 766 768 770 772 774 775 777 778 781 783 784 785 786 788 790 792 794 796 798 800 802 803 804 806 807 809 810 812 813 814 815 816 817 818 819 821 822 823 824 825 826 827 827 828 829 829 830 830 831 831 832 833 834 834 835 836 836 837 837
774 771 773 781 776 773 771 766 758 750 745 736 726 716 712 714 719 720 720 721 719 726 724 721 729 732 754 764 757 756 755 756 755 756 758 759 763 765 767 769 771 773 775 776 777 779 781 783 784 785 787 789 791 793 795 797 799 801 803 804 805 807 808 810 811 813 814 815 816 817 818 818 819 821 823 824 825 825 826 827 828 829 829 830 830 831 832 832 834 834 835 835 836 836 837 838 838
767 765 771 777 769 767 765 762 755 753 750 734 722 714 711 714 715 714 717 723 724 730 726 721 725 736 755 761 761 759 755 756 755 757 758 761 764 765 769 771 773 774 775 776 777 780 782 784 785 786 788 791 793 794 797 799 800 802 803 805 807 808 809 811 812 813 814 816 817 818 818 819 820 821 823 824 825 826 827 828 829 829 830 830 831 832 833 834 835 835 836 836 837 837 837 838 838
761 761 766 773 770 768 763 758 753 753 748 730 721 714 712 712 709 712 715 724 731 725 722 722 723 739 755 758 761 758 753 755 755 757 759 762 765 767 770 772 774 775 776 777 778 781 782 785 786 787 790 792 794 796 798 800 801 803 804 806 808 809 811 812 813 814 815 816 817 818 819 820 820 822 823 824 825 826 827 828 829 830 831 831 832 832 833 834 836 836 837 837 837 838 838 838 839
755 758 766 773 773 771 762 753 750 752 743 727 719 713 716 714 706 715 712 716 731 725 725 730 723 732 745 748 751 751 752 755 755 758 760 764 766 769 771 773 775 776 777 779 780 782 783 785 787 789 791 792 795 797 799 800 802 803 805 807 808 810 812 813 814 815 816 817 818 819 820 821 822 823 824 825 826 827 827 829 830 831 832 832 832 833 834 835 836 837 837 837 837 838 838 838 839
751 759 770 775 773 770 759 750 748 747 739 727 721 716 722 721 710 711 708 713 730 732 731 734 728 727 735 739 743 746 752 754 755 758 761 765 767 769 772 773 775 777 779 780 781 783 784 786 787 789 791 793 795 796 799 800 802 804 805 807 809 811 813 814 815 815 817 818 819 820 821 822 823 824 825 825 826 827 828 829 830 831 832 832 832 833 834 835 836 836 837 837 837 837 838 838 839
754 762 771 775 772 764 751 744 740 737 734 728 722 718 721 725 720 713 714 725 733 736 738 736 735 733 734 737 742 747 752 754 755 758 762 764 766 769 771 772 774 777 779 781 782 783 785 787 787 789 790 793 795 796 798 800 803 804 806 808 810 813 814 815 815 816 817 818 820 821 822 822 823 824 825 825 826 827 828 829 830 831 832 832 833 834 834 835 836 836 836 837 837 837 838 839 840
756 761 767 769 762 751 740 737 735 733 733 727 722 719 720 723 722 716 722 735 737 743 747 741 743 744 741 742 744 749 752 754 755 758 761 763 765 767 769 772 774 776 778 780 782 783 785 786 787 788 790 793 794 796 799 801 803 805 807 810 812 814 814 814 815 817 818 819 821 821 823 823 824 825 825 825 826 826 828 829 830 831 831 832 833 834 835 836 836 836 836 837 837 837 838 839 840
753 757 765 761 750 743 735 734 733 730 729 726 724 720 721 721 718 718 725 736 740 746 750 747 750 749 748 746 746 750 752 754 756 758 761 763 764 766 768 770 772 775 777 779 781 783 784 785 786 788 790 792 794 797 799 801 803 805 808 811 813 814 815 814 816 818 819 820 821 822 823 823 824 825 825 826 826 827 828 829 830 831 832 833 833 834 836 836 836 836 837 837 837 837 837 838 839
750 752 760 752 744 743 734 731 729 726 724 724 724 721 725 721 716 719 725 738 745 743 742 743 747 747 747 748 747 749 752 754 756 759 761 762 764 766 768 770 772 774 777 779 780 782 783 784 786 788 790 792 794 797 799 802 804 806 808 812 814 816 816 815 816 818 819 821 821 822 822 823 825 825 826 826 827 828 829 829 830 831 832 833 834 834 835 836 837 837 837 837 837 837 837 838 839
750 748 749 743 741 742 731 727 728 725 722 723 725 725 725 721 718 720 723 738 744 737 734 735 738 741 743 745 746 748 751 754 756 758 760 762 764 765 768 770 772 774 776 777 778 781 782 784 785 787 790 792 794 797 799 802 804 806 809 812 815 818 817 815 816 817 819 821 821 821 822 823 825 825 826 827 827 828 829 829 830 831 832 833 834 834 835 836 837 837 836 836 836 837 837 838 839
751 748 741 738 738 737 729 726 727 724 723 725 727 725 722 724 725 721 723 734 734 729 730 731 733 735 739 742 745 748 751 754 755 757 759 761 763 765 767 769 771 773 775 776 778 780 781 784 786 787 790 793 795 798 801 803 806 808 810 813 816 818 817 815 816 817 819 820 821 821 822 823 825 825 826 827 828 828 829 829 830 831 832 833 834 835 836 836 837 836 836 836 836 837 837 839 840
748 748 740 735 733 732 727 725 725 723 724 724 723 724 725 730 729 723 727 730 726 726 726 729 733 734 739 743 745 748 750 753 754 757 758 760 763 764 766 768 770 773 774 776 778 779 782 784 787 789 792 794 797 801 803 806 808 810 812 815 818 818 816 815 817 818 819 820 820 821 822 823 824 825 826 826 827 828 829 829 830 831 832 834 834 835 836 836 836 836 837 837 837 837 837 839 840
744 745 738 732 730 728 724 723 723 722 722 719 721 728 729 728 726 726 731 729 724 724 725 728 733 737 741 744 746 748 750 753 754 756 758 760 762 764 767 768 770 773 774 777 780 783 786 789 792 795 797 798 801 805 807 808 810 812 814 816 818 818 816 816 818 819 819 820 821 821 822 823 823 824 825 826 827 828 829 829 830 831 832 834 835 836 836 836 836 836 837 837 838 838 838 838 839
740 737 734 731 730 726 724 723 722 722 721 719 724 730 728 723 724 729 729 727 725 724 725 727 732 739 742 745 746 747 750 752 753 756 758 760 762 765 767 768 772 775 777 781 785 788 792 795 797 799 800 802 805 808 810 810 811 813 814 816 817 817 817 817 818 819 819 820 821 822 822 823 823 824 824 826 827 827 828 829 830 831 833 834 835 836 835 835 836 836 837 837 838 838 838 838 838
733 732 731 728 728 724 722 723 721 721 720 720 726 731 727 721 728 735 726 722 726 726 728 728 732 739 742 743 745 746 749 751 752 755 758 760 762 764 768 773 778 780 780 784 787 789 793 796 798 799 801 802 803 806 809 809 811 813 814 816 817 817 818 818 818 819 820 821 822 823 823 823 823 823 824 825 825 826 827 829 831 831 833 834 834 835 835 835 836 836 837 837 838 838 839 838 837
730 731 732 728 726 724 722 722 720 721 721 718 722 729 728 724 731 735 724 720 725 727 729 730 734 739 740 743 744 745 748 750 752 754 757 760 762 765 771 777 782 784 785 787 789 789 791 794 798 799 800 801 801 802 805 806 808 812 814 815 817 818 818 818 818 819 820 821 823 823 823 823 823 823 823 824 824 826 827 829 830 831 832 833 834 835 835 836 836 837 837 837 838 838 839 838 838
730 731 736 733 728 727 723 722 720 721 724 716 720 735 736 732 732 727 719 719 723 725 728 731 734 738 740 742 744 745 747 749 751 753 756 759 763 767 775 780 782 785 787 788 790 789 790 792 796 798 799 799 799 800 803 805 807 810 813 814 816 817 817 818 818 820 821 822 823 823 823 823 823 823 823 823 824 825 827 828 829 830 831 832 833 835 836 837 837 837 837 837 837 837 838 838 838
732 731 737 738 738 735 724 721 721 722 722 713 724 747 747 734 728 722 716 716 722 727 728 729 732 736 739 741 743 745 746 748 750 753 757 760 766 771 777 781 781 782 782 783 785 787 790 791 794 797 798 798 798 800 802 804 806 808 810 813 814 815 816 818 819 820 821 822 823 823 823 823 823 823 823 824 824 825 826 827 829 830 831 832 834 835 836 837 837 837 837 836 837 837 837 838 838
735 736 737 740 748 743 725 721 723 724 721 711 725 749 746 733 726 719 714 713 720 728 727 728 731 734 737 739 741 744 745 747 750 753 758 763 768 772 776 778 778 780 780 780 782 785 789 790 793 796 798 799 799 800 801 803 806 807 810 811 812 814 815 817 818 819 820 821 822 822 822 822 823 823 823 824 824 825 826 828 829 831 832 833 834 835 835 836 837 837 836 836 836 836 836 837 837
738 746 749 744 747 744 729 721 722 725 721 712 725 745 741 731 723 715 712 712 717 726 727 727 730 733 737 738 740 743 745 747 750 754 758 764 768 771 775 777 778 781 781 781 783 784 788 790 792 795 797 798 799 800 801 803 805 807 809 810 811 813 815 816 817 818 819 820 821 821 822 822 822 823 822 823 824 826 827 828 829 831 832 833 834 834 835 836 836 836 836 836 835 835 836 836 837
743 749 755 748 745 745 735 724 717 720 722 716 723 738 738 728 720 714 711 711 714 721 725 726 729 732 735 738 739 741 745 748 751 754 758 762 766 769 774 777 779 782 782 781 783 785 788 790 791 793 795 796 798 800 801 802 805 807 808 810 811 812 814 815 816 818 819 819 820 820 821 822 822 822 822 824 826 827 828 829 829 830 831 832 833 834 834 835 835 835 836 836 836 836 836 837 837
752 748 750 745 741 743 739 729 717 714 720 721 722 729 732 725 717 713 710 710 712 715 718 724 728 730 733 737 738 739 743 748 750 754 757 760 765 771 775 777 780 783 783 782 784 786 788 790 791 792 794 795 796 798 800 802 804 806 808 809 811 812 813 814 815 816 817 818 819 819 820 821 822 823 824 826 827 829 829 829 830 830 831 832 833 833 834 834 834 834 835 836 836 837 837 837 838
756 751 749 745 739 739 738 730 717 712 718 722 724 728 728 722 715 711 709 709 713 714 714 720 726 730 733 736 736 738 741 746 750 754 758 762 767 773 778 781 784 784 784 784 786 787 788 790 791 792 793 794 795 797 799 802 804 806 808 809 810 812 813 814 814 815 816 818 818 818 819 821 823 824 826 826 827 829 829 830 830 830 831 832 832 833 833 833 833 834 834 835 836 837 838 838 838
745 743 743 745 741 737 731 722 711 708 716 720 722 727 726 722 716 710 708 707 712 715 713 717 726 729 732 735 736 737 741 748 754 758 763 767 770 774 778 784 787 786 785 786 787 787 788 789 790 791 792 793 795 797 799 801 804 805 807 808 809 811 812 813 813 814 815 816 817 818 821 822 824 825 826 827 827 829 830 830 830 831 831 832 832 833 833 833 833 833 834 835 836 837 838 838 838
737 737 739 739 738 735 724 714 704 700 713 718 716 722 723 720 716 710 707 707 709 712 713 717 726 729 731 735 737 740 748 755 760 764 770 773 773 773 775 781 788 789 788 788 787 788 788 788 789 790 791 793 794 796 798 800 802 804 805 807 808 809 811 812 814 815 815 816 818 820 822 823 824 825 826 827 828 829 830 830 830 831 831 832 832 833 833 833 833 833 834 834 835 836 838 838 838
736 739 741 738 736 731 719 711 700 693 708 716 712 719 722 718 715 708 707 710 710 710 713 718 725 729 731 733 739 748 757 761 765 770 777 778 776 777 777 779 787 789 788 788 787 788 789 789 789 790 791 793 795 796 798 799 801 802 804 805 806 808 810 812 814 816 817 818 820 821 823 824 825 826 827 827 828 829 829 830 830 830 831 832 832 833 833 833 833 833 833 834 835 836 837 838 838
737 738 740 741 735 729 721 707 695 690 704 714 712 716 720 715 711 708 707 708 708 708 710 715 722 727 729 734 744 755 761 762 764 769 775 776 776 781 783 784 788 790 788 787 786 787 788 789 790 791 792 794 795 797 798 799 800 802 803 805 806 808 810 812 815 817 818 819 821 822 824 825 826 826 827 828 829 829 829 830 830 830 831 831 832 832 833 833 833 833 833 833 834 835 836 837 837
737 737 741 742 732 732 733 716 699 692 699 710 713 716 718 714 710 708 707 705 704 705 707 710 717 725 731 740 749 754 757 761 764 767 771 774 775 779 783 786 788 788 786 785 785 786 788 790 791 791 793 794 796 797 798 799 800 801 803 805 806 808 810 812 815 817 818 819 821 823 824 825 826 826 827 828 829 829 830 830 830 830 830 831 831 832 832 832 832 833 833 833 833 834 835 836 837
734 732 736 738 730 731 734 724 711 701 699 704 712 725 724 715 715 712 706 706 705 705 708 710 719 732 740 747 752 752 753 757 761 767 771 773 776 776 777 780 784 784 784 784 784 785 787 790 791 792 794 796 797 798 799 799 799 801 803 805 808 809 811 813 814 816 818 819 821 823 824 825 825 826 828 828 829 829 830 830 830 830 830 831 831 832 832 832 832 832 832 832 833 833 834 834 836
736 730 728 728 726 728 729 726 724 725 722 709 712 739 741 719 717 717 709 710 710 708 710 712 726 742 746 749 753 752 753 754 757 764 769 771 775 776 774 774 778 781 782 784 784 785 787 789 791 793 795 796 798 799 800 800 800 801 802 804 807 809 811 813 814 816 818 820 821 822 823 824 825 826 828 828 829 830 829 830 830 830 830 831 832 832 832 832 832 832 832 832 833 833 833 833 835
741 730 722 721 721 725 729 727 732 741 737 716 712 739 749 730 720 718 713 714 714 711 713 716 731 746 747 748 752 750 751 754 757 763 767 769 772 773 774 775 777 780 782 784 785 786 787 789 791 793 795 796 798 799 800 801 801 802 803 805 807 809 811 813 815 817 818 820 821 822 823 825 826 827 828 829 829 830 830 830 830 830 830 831 832 832 832 833 833 832 832 832 833 833 834 833 834
740 724 719 722 720 723 726 726 732 735 729 722 717 727 746 744 728 716 712 717 719 715 719 730 740 747 748 750 751 750 751 754 758 763 766 767 769 770 772 775 777 779 781 783 785 786 787 788 790 792 794 796 798 799 800 801 802 802 804 805 808 810 811 814 816 817 819 820 821 823 824 825 826 827 828 829 829 830 830 831 830 830 831 831 832 832 832 833 833 833 833 833 833 834 834 834 835
729 717 716 720 718 719 718 722 729 726 728 739 729 723 746 751 729 715 714 720 725 721 727 741 745 745 747 750 751 751 752 753 756 761 764 766 768 770 771 774 777 780 782 783 784 786 787 788 790 791 793 795 797 798 800 801 802 803 805 806 808 810 812 814 816 818 820 821 822 823 824 825 826 827 828 829 830 830 831 831 831 831 831 832 832 832 833 833 833 833 833 833 833 834 834 835 836
717 712 715 716 716 716 716 721 726 726 738 749 735 726 747 752 730 720 721 721 725 725 729 739 741 741 743 745 749 752 753 755 756 757 762 766 768 770 772 775 778 782 784 784 784 786 787 788 790 792 793 795 797 798 800 801 803 804 805 807 809 810 813 815 817 819 820 821 822 823 824 825 826 827 828 829 830 831 831 832 832 832 832 832 832 833 833 834 834 834 834 834 834 834 835 835 836
710 713 717 719 719 716 718 719 720 735 750 746 732 725 740 752 736 721 722 717 715 723 733 739 740 741 741 742 748 751 753 754 755 757 762 767 770 771 773 776 779 783 784 784 784 785 786 788 790 792 793 795 797 798 799 800 802 804 805 806 808 810 812 815 817 818 820 821 822 823 823 825 826 827 828 829 831 831 832 832 833 833 833 833 833 833 834 834 834 835 835 835 835 835 835 836 836
709 715 719 729 730 724 727 725 725 749 760 741 726 723 734 752 743 727 723 714 709 720 732 738 741 742 741 742 746 750 752 753 754 759 764 768 771 772 774 778 781 783 783 783 784 784 786 788 790 792 793 795 796 797 799 800 802 803 804 805 807 809 812 814 816 818 819 820 821 822 823 825 826 827 828 829 830 831 832 833 833 833 833 833 833 834 834 835 835 836 836 836 836 836 837 837 837
712 717 722 739 747 744 749 746 742 754 752 732 722 725 737 749 743 732 727 719 715 717 723 732 738 739 740 743 747 750 753 754 755 760 764 767 770 773 777 780 782 781 780 781 782 783 785 787 790 792 793 795 796 797 798 800 801 801 802 803 806 808 811 813 815 817 818 819 820 821 822 824 826 827 828 829 830 831 832 833 834 834 834 834 834 834 835 835 836 837 837 838 838 838 838 839 839
715 721 727 743 755 763 768 758 751 753 744 727 719 726 743 749 740 732 727 723 720 717 721 728 732 735 739 744 750 754 756 757 759 761 764 768 772 774 777 779 779 778 776 777 780 782 785 788 790 793 794 795 796 798 799 799 800 800 801 803 805 807 810 812 814 816 817 819 819 820 821 823 825 827 828 829 830 831 832 833 834 834 834 834 835 835 835 836 837 838 839 839 840 840 840 840 841
712 711 717 733 743 755 765 759 755 755 745 731 725 734 750 751 741 730 725 724 722 722 726 729 732 735 738 745 753 758 761 763 763 764 767 772 775 775 774 774 776 775 774 776 779 782 785 787 789 792 793 795 796 798 799 799 800 800 801 803 805 807 810 812 814 815 816 817 818 819 821 822 825 827 828 829 830 831 832 833 833 834 834 835 835 835 836 837 838 839 840 841 841 842 842 842 842
713 705 715 728 727 731 748 752 748 747 747 741 738 744 745 739 733 725 725 728 727 729 731 732 736 737 739 749 756 760 765 767 768 769 771 774 775 776 774 775 778 777 775 777 780 783 784 786 789 791 792 794 795 797 798 799 800 801 802 803 805 807 809 811 813 815 816 817 818 819 820 822 825 827 828 829 830 831 832 832 833 834 835 835 836 836 837 838 839 839 840 841 842 843 843 843 844
717 715 721 719 710 715 736 750 742 742 754 750 744 749 744 738 737 730 731 737 736 736 738 738 741 740 743 752 758 762 765 766 767 768 769 770 773 776 776 778 781 779 777 778 781 783 785 787 789 790 790 792 793 795 796 798 799 800 802 803 805 807 809 811 812 814 816 817 818 819 820 823 825 827 828 829 830 831 832 832 833 834 835 835 836 837 838 839 840 840 841 843 844 845 845 845 845
715 722 716 707 708 713 728 749 751 752 762 752 744 752 753 752 751 739 738 745 744 743 744 744 746 747 751 757 760 764 765 765 766 766 767 769 772 776 777 779 780 778 776 777 781 784 787 789 789 790 791 791 792 794 795 797 798 799 801 803 805 807 809 811 813 814 816 817 818 819 821 823 825 827 828 829 830 831 832 832 833 834 835 836 837 838 839 840 840 842 843 844 845 846 847 847 847
703 708 701 707 727 732 734 747 755 759 765 755 749 754 757 759 754 745 746 750 749 749 748 749 751 754 758 761 763 765 766 768 769 768 769 770 772 775 776 777 778 777 777 778 781 785 787 789 789 791 792 792 792 793 794 795 797 798 800 802 805 808 809 811 813 815 817 818 819 819 821 823 825 827 828 829 830 831 832 833 833 834 836 837 838 839 840 841 841 842 843 845 847 848 848 848 848
696 700 701 708 723 732 734 740 746 755 763 763 763 764 762 760 753 746 749 749 749 750 750 753 756 756 759 761 762 764 765 768 769 769 769 770 773 775 774 775 776 776 779 780 782 785 787 788 789 789 791 792 792 793 793 794 795 797 799 802 805 808 810 812 814 815 817 818 819 820 822 823 825 827 828 829 830 831 832 833 834 835 836 837 839 839 840 841 842 843 844 846 847 848 849 849 849
707 710 712 714 717 723 730 735 735 741 757 766 769 772 765 754 746 744 745 747 747 748 750 755 757 757 760 760 761 762 763 766 767 768 769 770 772 774 773 773 775 776 778 780 782 785 786 788 789 789 790 791 791 792 792 794 795 797 799 802 806 808 810 812 814 816 817 818 819 821 822 824 825 827 828 830 831 832 833 834 835 836 837 838 839 840 841 841 842 843 844 846 847 848 849 849 850
715 718 717 717 719 724 737 747 736 731 747 757 761 773 769 752 747 746 744 746 747 746 749 755 758 759 762 762 762 762 762 764 766 766 767 769 770 772 772 774 777 779 780 782 785 787 788 789 789 789 789 790 791 792 793 795 796 798 800 803 806 809 811 813 814 816 817 818 820 822 823 825 826 827 829 830 831 832 834 835 836 837 838 839 840 841 841 842 842 843 845 846 847 848 849 849 849